Weather Roundup
Issued by NWS Chicago, IL

Home | Current Version | Previous Version | Graphics & Text | Print | Product List | Glossary On
Versions: 1 2 3 4 5 6 7 8 9 10 11 12 13 14 15 16 17 18 19 20 21 22 23 24 25 26 27 28 29 30 31 32 33 34 35 36 37 38 39 40 41 42 43 44 45 46 47 48 49 50
000
NZUS59 KLOT 291108
HRRLOT

CHICAGO AREA WEATHER ROUNDUP
NATIONAL WEATHER SERVICE CHICAGO/ROMEOVILLE IL
600 AM CDT SUN MAR 29 2015

NOTE: "FAIR" INDICATES FEW OR NO CLOUDS BELOW 12,000 FEET WITH NO
SIGNIFICANT WEATHER AND/OR OBSTRUCTIONS TO VISIBILITY.

* THESE STATIONS ARE NOT UNDER NWS QUALITY CONTROL. THEY ALSO MAY NOT
  REPORT WEATHER SUCH AS PRECIPITATION OR FOG.

ILZ005-006-012>014-019>023-291200-
NORTHEAST ILLINOIS

CITY           SKY/WX    TMP DP  RH WIND       PRES   REMARKS
OHARE          MOCLDY    30  14  51 S13       30.13F WCI  20
MIDWAY         MOCLDY    31  15  52 S10       30.16F WCI  22
AURORA         PTCLDY    29  17  61 S13       30.12F WCI  19
LANSING*       PTCLDY    27  15  61 S10       30.18F WCI  18
JOLIET*        PTCLDY    31  19  61 S8        30.16F WCI  23
WAUKEGAN       MOCLDY    28  14  55 S14       30.09F WCI  17
DUPAGE AIRPORT PTCLDY    28  16  60 S13       30.12F WCI  17
WHEELING       PTCLDY    29  14  53 S9        30.14F WCI  20
KANKAKEE*      PTCLDY    28  19  67 S12       30.18F WCI  18
MORRIS*        CLEAR     26  19  73 S10       30.13F WCI  17
LEWIS AIRPORT* PTCLDY    27  18  68 S12       30.15F WCI  16
NORTHERLY IS     N/A     31  13  47 S14         N/A  WCI  21
$$

WIZ051-052-058>065-066-070>072-291200-
SOUTHEAST WISCONSIN

CITY           SKY/WX    TMP DP  RH WIND       PRES   REMARKS
MILWAUKEE      MOCLDY    30  14  51 S10       30.08F WCI  21
KENOSHA*       PTCLDY    29  15  56 S12       30.09F WCI  19
RACINE*        MOCLDY    31  13  47 S13       30.10F WCI  21
BURLINGTON     PTCLDY    29  15  56 S13G23    30.08F WCI  19
WAUKESHA       CLEAR     27  14  59 S10       30.27R WCI  17
WEST BEND      PTCLDY    30  14  51 S12       30.05R WCI  21
$$

INZ001>003-010>013-019-020-291200-
NORTHWEST INDIANA

CITY           SKY/WX    TMP DP  RH WIND       PRES   REMARKS
GARY*          CLEAR     30  12  47 S9        30.18F WCI  22
MICHIGAN CITY* NOT AVBL
RENSSELAER*    NOT AVBL
VALPARAISO     PTCLDY    26  17  68 S8        30.20F WCI  18
$$

LMZ740>746-291200-
SOUTHERN LAKE MICHIGAN

STATION/POSITION TIME  SKY/WX   TEMP WIND        PRES    VSBY
                                AIR  DIR/SP/G
                 (UTC)          (F)  (DEG/KT/KT) (MB)    (MI)
HARRISON CRIB    1000            31  180/ 25/ 29   N/A
BURNHAM HARBOR   1100            31  190/ 11/ 14   N/A
CALUMET HARBOR   NOT AVBL
BURNS HARBOR     1000            29  180/ 11/ 20 1022.7F
MICHIGAN CITY    1000            28  150/ 11/ 15   N/A
$$

ABBREVIATIONS USED IN REMARKS
   TC - TEMPERATURE IN CELSIUS
  WCI - WIND CHILL INDEX
   HX - HEAT INDEX
  VSB - VISIBILITY
$$


USA.gov is the U.S. government's official web portal to all federal, state and local government web resources and services.